Find OPS 9317

NORAD ID: 2221 Int'l Des: 1966-053 Owner: AFSSD Country: US operational
MEOCIRCULAR

現在のビュー

3D地球を読み込み中...

OPS 9317について

説明を読み込み中...

次回通過

Passes for default location (London). Set your location on the main map for personalized predictions.

高度履歴

Loading altitude history...

軌道要素

1 2221U 66053H 26149.90552110 -.00000065 00000-0 00000+0 0 9993
2 2221 8.4024 47.1654 0080265 174.8478 185.0875 1.06869936 50832
Epoch: May 29, 2026 • Age: 44 hours

現在のステータス

高度 34355.7 km
速度 3.12 km/s
衛星直下点 -1.56°S, 122.32°W
タイプ other

Most Searched